Weather Roundup
Issued by NWS

Home | Current Version | Previous Version | Text Only | Print | Product List | Glossary On
Versions: 1 2 3 4 5 6 7 8 9 10 11 12 13 14 15 16 17 18 19 20 21 22 23 24 25 26 27 28 29 30 31 32 33 34 35 36 37 38 39 40 41 42 43 44 45 46 47 48 49 50
000
NZUS93 KARX 050259
HRRWXR

CURRENT HOURLY OBSERVATIONS ACROSS
MUCH OF THE UPPER MISSISSIPPI VALLEY
NATIONAL WEATHER SERVICE LA CROSSE WI
1000 PM CDT SAT JUL 04 2015


...SOUTHEAST MINNESOTA...


CITY           SKY/WX    TMP DP  RH WIND       PRES   REMARKS
ROCHESTER      CLEAR     68  61  78 S6        29.96R
ROCHESTER/MAYO FAIR      72  61  67 S7        29.95S
WINONA         CLEAR     73  66  78 CALM      29.94R
AUSTIN         CLEAR     70  61  73 CALM      29.96R
ALBERT LEA     CLEAR     72  57  60 S6        29.95R
DODGE CENTER   CLEAR     66  61  82 S6        29.95R
PRESTON        CLEAR     67  61  80 S5        29.98R
OWATONNA       CLEAR     70  61  73 SE7       29.93S
FARIBAULT      CLEAR     70  63  78 CALM      29.93R
$$

...ELSEWHERE IN MINNESOTA...


CITY           SKY/WX    TMP DP  RH WIND       PRES   REMARKS
MINNEAPOLIS    CLEAR     77  63  61 S8        29.90R
INTNL FALLS    CLOUDY    70  60  70 VRB3      29.85R
DULUTH         PTCLDY    62  55  77 E6        29.94R
RED WING       CLEAR     75  63  64 SW5       29.91R
REDWOOD FALLS  CLEAR     73  62  68 S10       29.87S
MANKATO        CLEAR     72  61  68 S6        29.92R
WORTHINGTON    CLEAR     70  57  64 S9        29.92S
FAIRMONT       CLEAR     66  57  72 S7        29.92R
$$

...SOUTHWEST WISCONSIN...


CITY           SKY/WX    TMP DP  RH WIND       PRES   REMARKS
LA CROSSE      CLEAR     73  65  75 S6        29.94R
PRAIRIE DU CHI CLEAR     69  62  79 CALM      29.96S
BOSCOBEL       CLEAR     67  65  93 CALM      29.97R
LONE ROCK      NOT AVBL
PLATTEVILLE    CLEAR     70  64  80 SE5       30.00R
FORT MC COY    CLEAR     67  62  83 E5        29.96R
CAMP DOUGLAS   CLEAR     66  66 100 S5        29.96R
VIROQUA        FAIR      71  64  78 S5        29.98R
WIS DELLS      CLEAR     68  61  77 CALM      29.98R
$$

...ELSEWHERE IN WISCONSIN...


CITY           SKY/WX    TMP DP  RH WIND       PRES   REMARKS
MILWAUKEE      MOCLDY    68  55  63 S5        30.01R
MADISON        PTCLDY    72  61  68 SW3       29.99R
GREEN BAY      CLEAR     66  61  84 SE5       29.99R
EAU CLAIRE     CLEAR     74  65  73 S6        29.92R HAZE
BLACK RVR FLS  FAIR      69  64  82 SE3       29.94R
MEDFORD        CLEAR     69  64  83 CALM      29.96R
WAUSAU         MOCLDY    73  63  70 E3        29.95R HAZE
WIS RAPIDS     CLEAR     70  63  78 S3        29.98R
MARSHFIELD     PTCLDY    70  63  78 S3        29.97R HAZE
RICE LAKE      NOT AVBL
$$

...NORTHEAST IOWA...


CITY           SKY/WX    TMP DP  RH WIND       PRES   REMARKS
DECORAH          N/A    N/A N/A N/A MISG        N/A
MASON CITY     CLEAR     66  61  84 S6        29.97R
CHARLES CITY   CLEAR     68  64  88 S7        29.97R
OELWEIN          N/A     66  64  94 SE5       29.98R
$$

...ELSEWHERE IN IOWA...


CITY           SKY/WX    TMP DP  RH WIND       PRES   REMARKS
DES MOINES     MOCLDY    73  60  63 SE7       29.95R
IOWA CITY      CLEAR     68  63  84 SE5       30.00R
FORT DODGE     CLEAR     72  59  64 SE5       29.96R
$$

...NORTHERN ILLINOIS...


CITY           SKY/WX    TMP DP  RH WIND       PRES   REMARKS
CHICAGO-OHARE  PTCLDY    68  57  68 SE6       30.02R
CHICAGO-MIDWAY CLEAR     72  58  61 SE5       30.02R
MOLINE         CLEAR     68  62  81 CALM      30.01R HAZE
ROCKFORD       CLEAR     70  62  76 S5        30.03R
PEORIA         CLEAR     71  62  73 CALM      30.02R
$$

NOTE: "FAIR" INDICATES FEW OR NO CLOUDS BELOW 12,000 FEET WITH NO
SIGNIFICANT WEATHER AND/OR OBSTRUCTIONS TO VISIBILITY. WIND
SPEEDS ARE IN MILES-PER-HOUR.



USA.gov is the U.S. government's official web portal to all federal, state and local government web resources and services.